Location: Pradons
(44.4746°N, 4.3578°E)
Time: 20:17:23
(UTC+00:00)

Cosmos 1703 - Pass Details

Date: 09 August 2020
Orbit: 523 x 541 km, 82.5° (Epoch: 01 October)

Event Time Altitude Azimuth Distance (km) Brightness Sun altitude
Rises 02:10:20 0° 7° (N) 2,711 7.9 -21.6°
Reaches altitude 10° 02:13:11 10° 29° (NNE) 1,812 7.1 -21.3°
Maximum altitude 02:15:45 16° 70° (ENE) 1,444 6.2 -21.0°
Drops below altitude 10° 02:18:18 10° 110° (ESE) 1,799 6.2 -20.8°
Sets 02:21:06 0° 132° (SE) 2,682 6.8 -20.4°
